Time,TemperatureF,DewpointF,PressureIn,WindDirection,WindDirectionDegrees,WindSpeedMPH,WindSpeedGustMPH,Humidity,HourlyPrecipIn,Conditions,Clouds,dailyrainin,SoftwareType,DateUTC
2013-02-14 00:10:00,46.2,44.0,27.72,NNE,28,0.0,-999.0,90,-99.99,,,0.00,weatherlink.com 1.10,2013-02-14 06:10:00,
2013-02-14 00:25:00,46.0,43.0,26.54,NNE,28,0.0,-999.0,90,-99.99,,,0.00,weatherlink.com 1.10,2013-02-14 06:25:00,
2013-02-14 00:40:00,45.8,43.0,26.44,NNE,28,0.0,-999.0,89,-99.99,,,0.00,weatherlink.com 1.10,2013-02-14 06:40:00,
2013-02-14 00:55:00,45.6,43.0,27.09,NNE,20,0.0,-999.0,89,-99.99,,,0.00,weatherlink.com 1.10,2013-02-14 06:55:00,
2013-02-14 01:10:00,45.3,42.0,27.09,NNE,16,0.0,-999.0,89,-99.99,,,0.00,weatherlink.com 1.10,2013-02-14 07:10:00,
2013-02-14 01:25:00,45.1,42.0,27.09,NNE,17,5.0,-999.0,88,-99.99,,,0.00,weatherlink.com 1.10,2013-02-14 07:25:00,
2013-02-14 01:40:00,45.0,42.0,27.77,North,5,6.0,-999.0,88,-99.99,,,0.00,weatherlink.com 1.10,2013-02-14 07:40:00,
2013-02-14 01:55:00,44.8,42.0,27.77,NNE,22,0.0,-999.0,88,-99.99,,,0.00,weatherlink.com 1.10,2013-02-14 07:55:00,
2013-02-14 02:10:00,44.4,41.0,27.17,NNE,27,3.0,-999.0,88,-99.99,,,0.00,weatherlink.com 1.10,2013-02-14 08:10:00,
2013-02-14 02:25:00,44.3,41.0,27.28,NNE,24,2.0,-999.0,88,-99.99,,,0.00,weatherlink.com 1.10,2013-02-14 08:25:00,
2013-02-14 02:40:00,44.3,41.0,27.28,NNE,15,2.0,-999.0,88,-99.99,,,0.00,weatherlink.com 1.10,2013-02-14 08:40:00,
2013-02-14 02:55:00,44.2,41.0,27.68,NNE,15,2.0,-999.0,88,-99.99,,,0.00,weatherlink.com 1.10,2013-02-14 08:55:00,
2013-02-14 03:10:00,44.2,41.0,27.68,NNE,32,2.0,-999.0,88,-99.99,,,0.00,weatherlink.com 1.10,2013-02-14 09:10:00,
2013-02-14 03:26:00,44.1,41.0,27.07,NNE,16,4.0,-999.0,88,-99.99,,,0.00,weatherlink.com 1.10,2013-02-14 09:26:00,
2013-02-14 03:40:00,44.5,42.0,27.07,NNE,15,6.0,-999.0,89,-99.99,,,0.00,weatherlink.com 1.10,2013-02-14 09:40:00,
2013-02-14 03:55:00,44.8,42.0,27.07,NNE,23,3.0,-999.0,90,-99.99,,,0.00,weatherlink.com 1.10,2013-02-14 09:55:00,
2013-02-14 04:11:00,44.6,42.0,27.07,NNE,17,8.0,-999.0,91,-99.99,,,0.00,weatherlink.com 1.10,2013-02-14 10:11:00,
2013-02-14 04:25:00,44.6,42.0,27.07,North,349,10.0,-999.0,91,-99.99,,,0.00,weatherlink.com 1.10,2013-02-14 10:25:00,
2013-02-14 04:40:00,44.6,42.0,27.07,North,5,4.0,-999.0,90,-99.99,,,0.00,weatherlink.com 1.10,2013-02-14 10:40:00,
2013-02-14 04:55:00,44.4,42.0,27.07,North,9,5.0,-999.0,90,-99.99,,,0.00,weatherlink.com 1.10,2013-02-14 10:55:00,
2013-02-14 05:10:00,44.3,42.0,27.07,NE,37,0.0,-999.0,90,-99.99,,,0.00,weatherlink.com 1.10,2013-02-14 11:10:00,
2013-02-14 05:25:00,44.1,41.0,27.07,NNE,27,0.0,-999.0,90,-99.99,,,0.00,weatherlink.com 1.10,2013-02-14 11:25:00,
2013-02-14 05:40:00,43.7,41.0,27.54,NNE,26,3.0,-999.0,90,-99.99,,,0.00,weatherlink.com 1.10,2013-02-14 11:40:00,
2013-02-14 05:55:00,43.5,41.0,27.54,NNE,27,2.0,-999.0,90,-99.99,,,0.00,weatherlink.com 1.10,2013-02-14 11:55:00,
2013-02-14 06:10:00,43.3,41.0,26.95,NNE,27,1.0,-999.0,91,-99.99,,,0.00,weatherlink.com 1.10,2013-02-14 12:10:00,
2013-02-14 06:25:00,43.2,41.0,26.95,NNE,26,0.0,-999.0,91,-99.99,,,0.00,weatherlink.com 1.10,2013-02-14 12:25:00,
2013-02-14 06:40:00,42.9,41.0,26.95,NNE,24,0.0,-999.0,91,-99.99,,,0.00,weatherlink.com 1.10,2013-02-14 12:40:00,
2013-02-14 06:56:00,42.8,40.0,26.95,NNE,20,0.0,-999.0,91,-99.99,,,0.00,weatherlink.com 1.10,2013-02-14 12:56:00,
2013-02-14 07:10:00,42.7,40.0,26.95,NNE,24,1.0,-999.0,91,-99.99,,,0.00,weatherlink.com 1.10,2013-02-14 13:10:00,
2013-02-14 07:41:00,42.9,41.0,26.95,NNE,15,2.0,-999.0,91,-99.99,,,0.00,weatherlink.com 1.10,2013-02-14 13:41:00,
2013-02-14 07:56:00,43.2,41.0,26.95,North,5,0.0,-999.0,91,-99.99,,,0.00,weatherlink.com 1.10,2013-02-14 13:56:00,
2013-02-14 08:11:00,43.6,41.0,29.60,NNE,27,3.0,-999.0,91,-99.99,,,0.00,weatherlink.com 1.10,2013-02-14 14:11:00,
2013-02-14 08:26:00,44.0,41.0,29.26,NNE,24,1.0,-999.0,90,-99.99,,,0.00,weatherlink.com 1.10,2013-02-14 14:26:00,
2013-02-14 08:41:00,44.5,42.0,29.26,NNE,31,0.0,-999.0,89,-99.99,,,0.00,weatherlink.com 1.10,2013-02-14 14:41:00,
2013-02-14 08:56:00,45.0,41.0,29.26,North,5,5.0,-999.0,87,-99.99,,,0.00,weatherlink.com 1.10,2013-02-14 14:56:00,
2013-02-14 09:11:00,45.8,42.0,29.26,NNE,22,5.0,-999.0,86,-99.99,,,0.00,weatherlink.com 1.10,2013-02-14 15:11:00,
2013-02-14 09:26:00,46.4,42.0,29.26,NNE,19,4.0,-999.0,84,-99.99,,,0.00,weatherlink.com 1.10,2013-02-14 15:26:00,
2013-02-14 09:41:00,46.8,42.0,29.26,NNE,21,10.0,-999.0,83,-99.99,,,0.00,weatherlink.com 1.10,2013-02-14 15:41:00,
2013-02-14 09:59:00,47.1,43.0,27.61,NNE,19,7.0,-999.0,84,-99.99,,,0.00,weatherlink.com 1.10,2013-02-14 15:59:00,
2013-02-14 10:11:00,47.6,43.0,27.16,NNE,18,5.0,-999.0,83,-99.99,,,0.00,weatherlink.com 1.10,2013-02-14 16:11:00,
2013-02-14 10:26:00,47.8,43.0,27.16,NE,49,1.0,-999.0,82,-99.99,,,0.00,weatherlink.com 1.10,2013-02-14 16:26:00,
2013-02-14 10:41:00,48.5,43.0,27.16,North,360,1.0,-999.0,82,-99.99,,,0.00,weatherlink.com 1.10,2013-02-14 16:41:00,
2013-02-14 10:56:00,49.5,43.0,27.16,NNE,29,2.0,-999.0,78,-99.99,,,0.00,weatherlink.com 1.10,2013-02-14 16:56:00,
2013-02-14 11:11:00,49.8,43.0,27.16,NNE,22,0.0,-999.0,78,-99.99,,,0.00,weatherlink.com 1.10,2013-02-14 17:11:00,
2013-02-14 11:26:00,50.0,43.0,27.16,NNE,13,1.0,-999.0,77,-99.99,,,0.00,weatherlink.com 1.10,2013-02-14 17:26:00,
2013-02-14 11:41:00,49.5,42.0,25.34,NE,46,1.0,-999.0,76,-99.99,,,0.00,weatherlink.com 1.10,2013-02-14 17:41:00,
2013-02-14 11:56:00,50.5,43.0,25.34,NNE,19,9.0,-999.0,76,-99.99,,,0.00,weatherlink.com 1.10,2013-02-14 17:56:00,
2013-02-14 12:11:00,50.6,43.0,25.34,NNW,346,9.0,-999.0,75,-99.99,,,0.00,weatherlink.com 1.10,2013-02-14 18:11:00,
2013-02-14 12:26:00,51.3,44.0,25.34,NNW,332,7.0,-999.0,76,-99.99,,,0.00,weatherlink.com 1.10,2013-02-14 18:26:00,
2013-02-14 12:41:00,50.2,44.0,25.34,WNW,290,9.0,-999.0,78,-99.99,,,0.00,weatherlink.com 1.10,2013-02-14 18:41:00,
2013-02-14 12:56:00,50.2,44.0,25.34,NW,317,6.0,-999.0,78,-99.99,,,0.00,weatherlink.com 1.10,2013-02-14 18:56:00,
2013-02-14 13:11:00,50.4,44.0,25.34,NW,314,9.0,-999.0,79,-99.99,,,0.00,weatherlink.com 1.10,2013-02-14 19:11:00,
2013-02-14 13:27:00,50.8,46.0,25.34,NW,318,11.0,-999.0,82,-99.99,,,0.00,weatherlink.com 1.10,2013-02-14 19:27:00,
2013-02-14 13:41:00,50.9,45.0,24.49,NW,317,11.0,-999.0,80,-99.99,,,0.00,weatherlink.com 1.10,2013-02-14 19:41:00,
2013-02-14 13:56:00,51.1,44.0,25.21,NW,316,7.0,-999.0,78,-99.99,,,0.00,weatherlink.com 1.10,2013-02-14 19:56:00,
2013-02-14 14:11:00,51.5,45.0,25.21,WNW,302,5.0,-999.0,78,-99.99,,,0.00,weatherlink.com 1.10,2013-02-14 20:11:00,
2013-02-14 14:26:00,52.0,45.0,25.21,WNW,300,5.0,-999.0,77,-99.99,,,0.00,weatherlink.com 1.10,2013-02-14 20:26:00,
2013-02-14 14:41:00,52.4,44.0,25.21,WNW,292,4.0,-999.0,74,-99.99,,,0.00,weatherlink.com 1.10,2013-02-14 20:41:00,
2013-02-14 14:57:00,52.9,44.0,25.21,WNW,289,3.0,-999.0,72,-99.99,,,0.00,weatherlink.com 1.10,2013-02-14 20:57:00,
2013-02-14 15:12:00,53.3,44.0,25.21,NW,312,6.0,-999.0,72,-99.99,,,0.00,weatherlink.com 1.10,2013-02-14 21:12:00,
2013-02-14 15:26:00,53.9,45.0,25.21,NW,312,6.0,-999.0,73,-99.99,,,0.00,weatherlink.com 1.10,2013-02-14 21:26:00,
2013-02-14 15:42:00,54.7,45.0,25.21,NW,307,7.0,-999.0,71,-99.99,,,0.00,weatherlink.com 1.10,2013-02-14 21:42:00,
2013-02-14 15:56:00,55.6,46.0,25.21,NW,319,5.0,-999.0,69,-99.99,,,0.00,weatherlink.com 1.10,2013-02-14 21:56:00,
2013-02-14 16:12:00,56.8,46.0,25.21,NW,326,7.0,-999.0,68,-99.99,,,0.00,weatherlink.com 1.10,2013-02-14 22:12:00,
2013-02-14 16:27:00,58.6,46.0,25.21,NNW,339,9.0,-999.0,63,-99.99,,,0.00,weatherlink.com 1.10,2013-02-14 22:27:00,
2013-02-14 16:42:00,58.8,45.0,25.21,North,350,10.0,-999.0,60,-99.99,,,0.00,weatherlink.com 1.10,2013-02-14 22:42:00,
2013-02-14 17:12:00,57.8,42.0,24.39,NNE,17,0.0,-999.0,56,-99.99,,,0.00,weatherlink.com 1.10,2013-02-14 23:12:00,
2013-02-14 17:27:00,57.5,42.0,24.39,NNE,18,4.0,-999.0,56,-99.99,,,0.00,weatherlink.com 1.10,2013-02-14 23:27:00,
2013-02-14 17:42:00,56.2,43.0,24.39,NNE,18,0.0,-999.0,61,-99.99,,,0.00,weatherlink.com 1.10,2013-02-14 23:42:00,
2013-02-14 17:57:00,54.3,43.0,24.39,North,360,0.0,-999.0,65,-99.99,,,0.00,weatherlink.com 1.10,2013-02-14 23:57:00,
2013-02-14 18:12:00,52.8,42.0,24.39,North,360,0.0,-999.0,68,-99.99,,,0.00,weatherlink.com 1.10,2013-02-15 00:12:00,
2013-02-14 18:27:00,51.3,43.0,24.39,North,360,0.0,-999.0,73,-99.99,,,0.00,weatherlink.com 1.10,2013-02-15 00:27:00,
2013-02-14 18:42:00,50.1,42.0,24.39,North,360,0.0,-999.0,75,-99.99,,,0.00,weatherlink.com 1.10,2013-02-15 00:42:00,
2013-02-14 18:57:00,49.4,42.0,24.39,North,360,0.0,-999.0,76,-99.99,,,0.00,weatherlink.com 1.10,2013-02-15 00:57:00,
2013-02-14 19:12:00,48.9,42.0,24.39,North,360,0.0,-999.0,76,-99.99,,,0.00,weatherlink.com 1.10,2013-02-15 01:12:00,
2013-02-14 19:27:00,48.7,41.0,24.39,North,5,0.0,-999.0,76,-99.99,,,0.00,weatherlink.com 1.10,2013-02-15 01:27:00,
2013-02-14 19:57:00,48.2,41.0,23.41,North,5,0.0,-999.0,77,-99.99,,,0.00,weatherlink.com 1.10,2013-02-15 01:57:00,
2013-02-14 20:12:00,48.1,41.0,23.41,North,5,0.0,-999.0,77,-99.99,,,0.00,weatherlink.com 1.10,2013-02-15 02:12:00,
2013-02-14 20:27:00,47.6,41.0,23.41,North,5,0.0,-999.0,78,-99.99,,,0.00,weatherlink.com 1.10,2013-02-15 02:27:00,
2013-02-14 20:42:00,47.3,41.0,23.41,North,9,0.0,-999.0,78,-99.99,,,0.00,weatherlink.com 1.10,2013-02-15 02:42:00,
2013-02-14 20:57:00,46.7,41.0,24.56,North,10,0.0,-999.0,80,-99.99,,,0.00,weatherlink.com 1.10,2013-02-15 02:57:00,
2013-02-14 21:12:00,45.8,41.0,24.56,NNE,17,0.0,-999.0,82,-99.99,,,0.00,weatherlink.com 1.10,2013-02-15 03:12:00,
2013-02-14 21:42:00,44.1,41.0,25.45,NNE,19,0.0,-999.0,87,-99.99,,,0.00,weatherlink.com 1.10,2013-02-15 03:42:00,
2013-02-14 21:57:00,43.6,40.0,25.45,NNE,20,0.0,-999.0,87,-99.99,,,0.00,weatherlink.com 1.10,2013-02-15 03:57:00,
2013-02-14 22:12:00,43.1,40.0,25.45,NNE,33,0.0,-999.0,88,-99.99,,,0.00,weatherlink.com 1.10,2013-02-15 04:12:00,
2013-02-14 22:27:00,42.7,40.0,25.45,NE,34,0.0,-999.0,89,-99.99,,,0.00,weatherlink.com 1.10,2013-02-15 04:27:00,
2013-02-14 22:42:00,42.3,39.0,25.44,NE,35,0.0,-999.0,89,-99.99,,,0.00,weatherlink.com 1.10,2013-02-15 04:42:00,
2013-02-14 22:57:00,42.1,39.0,25.44,NE,38,0.0,-999.0,90,-99.99,,,0.00,weatherlink.com 1.10,2013-02-15 04:57:00,
2013-02-14 23:12:00,41.7,39.0,25.44,NE,43,0.0,-999.0,90,-99.99,,,0.00,weatherlink.com 1.10,2013-02-15 05:12:00,
2013-02-14 23:27:00,41.5,39.0,25.44,NE,44,0.0,-999.0,90,-99.99,,,0.00,weatherlink.com 1.10,2013-02-15 05:27:00,
2013-02-14 23:42:00,41.3,39.0,25.44,NE,53,0.0,-999.0,90,-99.99,,,0.00,weatherlink.com 1.10,2013-02-15 05:42:00,
2013-02-14 23:57:00,41.1,39.0,25.44,NE,54,0.0,-999.0,91,-99.99,,,0.00,weatherlink.com 1.10,2013-02-15 05:57:00,